Location: Crescent
(42.8242°N, 73.7329°W)
Time: 02:49:34
(UTC+00:00)

Explorer 7 - Pass Details

Date: 23 February 2026
Orbit: 430 x 541 km, 50.2° (Epoch: 13 March)

Event Time Altitude Azimuth Distance (km) Brightness Sun altitude
Rises 17:22:23 0° 223° (SW) 2,384 10.7 37.4°
Reaches altitude 10° 17:24:31 10° 218° (SW) 1,525 10.0 37.4°
Maximum altitude 17:27:49 47° 143° (SE) 583 8.1 37.4°
Drops below altitude 10° 17:31:13 10° 68° (ENE) 1,565 9.0 37.3°
Sets 17:33:25 0° 63° (ENE) 2,456 9.9 37.2°
